TimeCET,TemperatureF,Dew PointF,Humidity,Sea Level PressureIn,VisibilityMPH,Wind Direction,Wind SpeedMPH,Gust SpeedMPH,PrecipitationIn,Events,Conditions,WindDirDegrees,DateUTC
12:00 AM,51.8,37.4,58,29.56,6.2,Variable,2.3,-,N/A,,Unknown,0,2013-03-10 23:00:00
12:30 AM,53.6,37.4,54,29.56,6.2,WSW,3.5,-,N/A,,Overcast,250,2013-03-10 23:30:00
1:00 AM,53.6,39.2,58,29.59,6.2,WSW,2.3,-,N/A,,Overcast,240,2013-03-11 00:00:00
1:30 AM,55.4,39.2,54,29.59,6.2,WSW,4.6,-,N/A,,Overcast,240,2013-03-11 00:30:00
2:00 AM,53.6,37.4,54,29.59,6.2,SW,4.6,-,N/A,,Mostly Cloudy,220,2013-03-11 01:00:00
2:30 AM,53.6,37.4,54,29.59,6.2,SSW,4.6,-,N/A,,Mostly Cloudy,210,2013-03-11 01:30:00
3:00 AM,53.6,37.4,54,29.59,6.2,SW,5.8,-,N/A,,Mostly Cloudy,220,2013-03-11 02:00:00
3:30 AM,53.6,37.4,54,29.56,6.2,SW,5.8,-,N/A,,Overcast,220,2013-03-11 02:30:00
4:00 AM,53.6,37.4,54,29.56,6.2,Variable,2.3,-,N/A,,Overcast,0,2013-03-11 03:00:00
4:30 AM,51.8,37.4,58,29.56,6.2,Variable,2.3,-,N/A,,Overcast,0,2013-03-11 03:30:00
5:00 AM,51.8,37.4,58,29.56,6.2,SSW,3.5,-,N/A,,Mostly Cloudy,200,2013-03-11 04:00:00
5:30 AM,50.0,35.6,58,29.56,6.2,South,4.6,-,N/A,,Scattered Clouds,180,2013-03-11 04:30:00
6:00 AM,48.2,35.6,62,29.56,6.2,South,4.6,-,N/A,,Scattered Clouds,180,2013-03-11 05:00:00
6:30 AM,48.2,35.6,62,29.56,-9999.0,South,5.8,-,N/A,,Clear,190,2013-03-11 05:30:00
7:00 AM,48.2,35.6,62,29.56,-9999.0,South,5.8,-,N/A,,Clear,190,2013-03-11 06:00:00
7:30 AM,50.0,35.6,58,29.53,-9999.0,Variable,4.6,-,N/A,,Clear,0,2013-03-11 06:30:00
8:00 AM,50.0,35.6,58,29.53,-9999.0,South,4.6,-,N/A,,Clear,190,2013-03-11 07:00:00
8:30 AM,50.0,35.6,58,29.53,-9999.0,Variable,4.6,-,N/A,,Clear,0,2013-03-11 07:30:00
9:00 AM,53.6,37.4,54,29.53,-9999.0,SSW,5.8,-,N/A,,Clear,200,2013-03-11 08:00:00
9:30 AM,55.4,37.4,51,29.53,-9999.0,Variable,5.8,-,N/A,,Clear,0,2013-03-11 08:30:00
10:00 AM,57.2,39.2,51,29.53,-9999.0,Variable,5.8,-,N/A,,Clear,0,2013-03-11 09:00:00
10:30 AM,59.0,37.4,45,29.53,-9999.0,SSW,8.1,-,N/A,,Clear,210,2013-03-11 09:30:00
11:00 AM,60.8,37.4,42,29.53,-9999.0,SW,5.8,-,N/A,,Clear,230,2013-03-11 10:00:00
11:30 AM,60.8,37.4,42,29.53,6.2,Variable,11.5,-,N/A,,Scattered Clouds,0,2013-03-11 10:30:00
12:00 PM,60.8,35.6,39,29.53,6.2,SW,10.4,-,N/A,,Scattered Clouds,230,2013-03-11 11:00:00
12:30 PM,60.8,37.4,42,29.53,6.2,SSW,10.4,-,N/A,,Mostly Cloudy,210,2013-03-11 11:30:00
1:00 PM,60.8,37.4,42,29.53,6.2,WSW,9.2,-,N/A,,Mostly Cloudy,240,2013-03-11 12:00:00
1:30 PM,60.8,37.4,42,29.50,6.2,SW,8.1,-,N/A,,Mostly Cloudy,230,2013-03-11 12:30:00
2:00 PM,64.4,37.4,37,29.50,6.2,Variable,8.1,-,N/A,,Scattered Clouds,0,2013-03-11 13:00:00
2:30 PM,64.4,35.6,34,29.47,6.2,SW,10.4,-,N/A,,Scattered Clouds,220,2013-03-11 13:30:00
3:07 PM,62.6,37.4,39,29.47,6.2,WSW,10.4,-,N/A,,Scattered Clouds,250,2013-03-11 14:07:00
3:30 PM,60.8,39.2,45,29.47,6.2,WSW,13.8,-,N/A,,Scattered Clouds,250,2013-03-11 14:30:00
4:00 PM,59.0,42.8,55,29.47,6.2,WNW,16.1,-,N/A,,Mostly Cloudy,300,2013-03-11 15:00:00
4:30 PM,57.2,42.8,59,29.47,6.2,WNW,17.3,-,N/A,,Mostly Cloudy,300,2013-03-11 15:30:00
5:00 PM,55.4,46.4,72,29.50,6.2,WNW,15.0,-,N/A,,Mostly Cloudy,300,2013-03-11 16:00:00
5:30 PM,55.4,46.4,72,29.50,6.2,West,11.5,-,N/A,,Mostly Cloudy,260,2013-03-11 16:30:00
6:00 PM,55.4,46.4,72,29.50,6.2,West,8.1,-,N/A,,Mostly Cloudy,260,2013-03-11 17:00:00
6:30 PM,53.6,46.4,77,29.50,6.2,WSW,8.1,-,N/A,,Mostly Cloudy,250,2013-03-11 17:30:00
7:00 PM,53.6,46.4,77,29.50,6.2,WSW,8.1,-,N/A,,Mostly Cloudy,250,2013-03-11 18:00:00
7:38 PM,53.6,46.4,77,29.53,6.2,West,17.3,-,N/A,,Mostly Cloudy,280,2013-03-11 18:38:00
8:00 PM,53.6,46.4,77,29.53,6.2,West,15.0,27.6,N/A,,Mostly Cloudy,260,2013-03-11 19:00:00
8:30 PM,53.6,44.6,72,29.53,6.2,West,16.1,-,N/A,,Overcast,260,2013-03-11 19:30:00
9:00 PM,53.6,44.6,72,29.53,6.2,West,19.6,-,N/A,,Mostly Cloudy,270,2013-03-11 20:00:00
9:30 PM,53.6,44.6,72,29.53,6.2,West,19.6,32.2,N/A,,Mostly Cloudy,260,2013-03-11 20:30:00
10:00 PM,51.8,44.6,76,29.53,6.2,West,17.3,31.1,N/A,,Mostly Cloudy,260,2013-03-11 21:00:00
10:30 PM,51.8,44.6,76,29.56,6.2,WSW,18.4,34.5,N/A,,Mostly Cloudy,250,2013-03-11 21:30:00
11:00 PM,51.8,46.4,82,29.53,6.2,West,17.3,-,N/A,,Mostly Cloudy,260,2013-03-11 22:00:00
11:30 PM,50.0,44.6,82,29.56,6.2,West,21.9,-,N/A,,Mostly Cloudy,270,2013-03-11 22:30:00